Theta_e
342 341 341 340 338 336 336 333 331 330 322 322 322 325 326 325 325 323 321 318 317 317 316 317 316 314 310 306 305 305 305 305 305 305 305 305 305 306
339 339 339 338 337 334 334 332 330 329 330 325 326 326 325 324 325 324 320 318 317 316 317 316 315 313 308 306 305 305 305 304 304 304 303 302 302 304
337 337 336 336 335 334 331 329 328 327 326 326 326 325 324 323 323 322 320 316 317 317 317 315 313 310 308 308 308 306 305 304 303 303 302 301 302 302
327 331 330 331 331 330 330 329 327 327 326 325 323 322 323 322 323 322 320 317 317 318 316 314 311 310 309 308 306 304 304 303 302 301 300 298 298 299
319 320 324 328 328 327 327 326 326 325 325 324 322 322 322 322 321 320 319 317 317 318 315 312 310 309 308 307 305 304 302 301 300 300 299 299 299 298
308 310 311 311 310 312 317 321 324 324 323 323 322 321 321 320 320 316 313 312 312 314 312 310 309 308 307 305 304 302 302 301 301 300 300 300 299 299
304 303 302 303 305 304 307 309 311 311 316 320 320 319 317 315 316 315 313 310 309 311 309 308 307 306 305 304 303 302 302 302 301 301 300 300 299 298
298 298 299 299 300 301 302 301 302 303 304 306 310 314 314 315 316 315 312 307 305 307 306 305 306 304 304 303 303 302 302 301 300 299 299 299 298 299
296 297 297 298 298 299 300 300 300 300 300 300 301 302 304 305 309 310 309 309 307 306 306 303 305 304 302 302 301 300 300 299 299 298 298 299 300 300
296 296 296 296 296 296 297 298 298 298 298 299 299 301 301 302 302 302 303 303 303 304 304 298 300 300 300 300 299 297 296 296 296 298 300 301 301 301
296 296 295 294 294 295 295 294 295 295 297 297 297 298 299 300 300 300 301 301 296 299 300 300 298 298 298 297 296 296 296 297 297 299 299 298 300 300
295 295 295 294 293 293 293 293 292 292 293 294 295 296 297 297 298 299 299 297 295 296 298 297 296 297 293 295 296 295 296 297 298 298 297 298 298 296
292 293 294 294 294 294 293 292 292 292 293 293 294 294 295 296 297 298 297 298 297 297 298 297 295 295 294 294 294 294 295 297 298 297 296 296 296 296
290 291 292 293 294 293 292 290 290 291 292 292 293 293 293 294 295 295 296 297 297 297 296 296 295 295 293 292 292 293 294 296 297 295 294 293 294 297
290 291 292 292 292 293 292 291 290 290 290 291 291 292 292 293 293 294 294 294 295 295 295 295 295 294 294 293 292 292 293 294 295 295 293 293 293 294
289 291 291 292 292 292 291 291 291 290 290 290 290 291 292 292 292 293 293 293 292 292 292 292 293 293 293 292 293 291 292 292 293 294 293 293 292 292
289 290 290 290 290 290 290 290 290 290 290 290 291 291 291 291 291 291 291 291 290 290 290 290 290 291 291 292 291 291 291 291 292 292 294 294 290 291
289 290 290 290 290 290 290 290 290 290 291 291 291 291 291 291 291 290 290 290 290 290 289 289 289 290 290 289 290 290 290 291 292 292 293 291 291 290
289 289 289 290 290 290 290 289 290 290 290 290 290 290 290 290 290 289 289 290 290 289 289 289 289 290 291 289 289 290 290 290 291 290 291 290 288 289
285 287 287 288 289 289 289 289 289 289 289 289 289 289 289 289 289 289 290 290 290 289 289 289 289 290 289 288 287 287 290 290 290 288 288 288 287 288
283 283 285 286 289 289 289 289 289 289 289 289 289 288 289 289 289 290 290 289 290 289 289 289 289 290 290 289 288 286 288 289 290 290 288 287 287 287
280 281 284 285 288 289 289 289 289 289 289 289 289 288 288 289 289 290 289 289 290 289 289 289 289 290 289 288 287 286 286 288 289 289 290 289 289 287
278 282 284 287 288 288 288 288 289 289 288 288 289 288 288 289 289 290 289 289 290 290 289 288 289 289 289 288 287 287 287 288 288 289 290 291 293 293
Wind_Speed
35 35 32 29 19 20 29 23 8 4 6 12 15 20 23 24 29 32 35 36 37 42 43 39 42 37 31 28 26 25 24 23 23 22 21 21 23 23
33 28 28 26 21 16 21 24 23 18 7 19 17 24 24 26 26 29 33 34 36 38 40 42 41 35 30 27 24 24 24 24 23 23 23 25 26 24
30 32 31 24 18 19 21 23 22 21 10 11 26 25 27 27 27 31 31 33 36 38 39 41 39 33 29 25 23 24 25 25 24 24 26 28 26 23
27 19 26 10 15 23 25 25 26 28 22 14 24 19 28 27 29 33 33 35 38 40 39 42 37 31 27 23 20 21 24 24 25 26 27 29 28 27
19 22 25 22 22 25 27 26 24 28 26 20 23 21 28 28 28 30 34 37 40 40 42 40 36 32 27 20 18 19 22 23 24 25 25 27 26 28
22 22 20 22 23 23 20 20 25 25 20 23 26 25 23 28 29 22 18 26 29 37 41 40 35 30 24 21 20 20 22 23 23 24 26 29 26 26
24 25 25 23 22 23 22 20 19 16 13 17 18 20 17 13 17 22 25 29 29 38 39 36 32 28 25 21 22 21 24 24 26 26 26 31 33 34
25 29 27 30 28 26 23 20 22 19 13 8 10 12 12 23 24 25 23 11 4 27 31 27 32 28 25 21 18 17 21 23 25 28 32 36 38 35
26 24 24 25 26 24 22 21 20 22 22 18 12 12 8 9 10 6 7 9 7 7 20 13 24 23 19 14 13 16 21 25 28 32 34 36 32 30
24 24 23 23 23 22 19 17 15 16 16 16 16 16 14 14 13 9 9 13 11 10 3 4 8 6 8 8 11 17 22 27 29 28 26 30 28 27
19 19 19 20 21 21 19 18 16 16 14 12 10 9 8 8 8 9 3 2 3 2 6 10 5 5 5 10 13 11 16 17 17 20 15 17 23 27
18 18 17 17 17 18 17 17 15 17 17 17 14 10 8 7 7 4 3 3 5 1 6 4 4 4 2 5 5 11 12 9 8 9 12 18 25 27
19 22 20 18 16 16 16 12 12 14 14 13 11 11 9 7 6 4 4 1 4 3 5 5 5 6 3 3 6 9 7 6 4 3 5 14 21 22
22 22 21 18 16 16 15 13 12 12 12 12 11 11 9 7 5 4 2 3 2 5 9 7 5 6 4 1 4 7 5 4 2 5 9 14 9 7
20 20 19 16 15 13 12 13 14 12 11 11 11 10 8 7 4 3 4 10 10 11 10 9 5 5 4 4 3 3 4 5 4 6 15 19 20 20
24 20 17 15 13 13 16 13 13 13 11 11 11 10 7 7 5 5 7 7 5 4 5 7 8 8 8 9 10 3 2 2 4 12 16 25 20 23
23 20 19 18 19 18 16 13 13 11 10 9 9 9 8 7 7 8 8 8 4 5 4 4 5 6 6 4 3 4 5 9 12 11 21 24 26 26
21 17 16 16 14 16 15 15 12 11 10 9 9 8 9 9 9 9 10 10 7 7 6 6 8 7 5 7 1 8 13 15 14 15 23 24 25 26
16 17 18 17 16 16 14 13 13 11 9 9 10 9 9 10 9 10 11 10 8 7 7 9 12 4 1 1 4 7 14 18 22 21 23 19 23 26
21 21 21 22 18 16 14 12 11 11 9 10 9 9 10 9 9 10 12 10 9 7 6 9 11 4 3 4 4 7 15 24 26 25 30 30 34 35
23 24 23 25 21 17 12 11 10 9 9 10 8 8 9 8 10 11 13 11 9 8 6 8 9 8 8 15 9 8 13 19 27 36 30 29 24 23
29 28 26 26 23 14 9 8 8 7 7 8 7 7 7 7 10 12 13 11 10 10 8 8 8 11 12 11 11 12 18 20 23 29 20 21 17 6
34 29 28 22 14 8 7 5 6 5 7 7 7 6 5 6 8 10 11 11 10 9 12 12 13 10 13 16 21 18 25 23 26 31 25 22 31 38
Wind_Direction
265 266 263 257 252 246 255 246 241 253 225 246 235 256 260 266 262 264 259 251 240 234 233 231 229 226 229 230 232 233 233 237 242 246 250 253 257 258
274 267 261 258 256 244 250 244 235 241 256 221 244 257 266 265 265 265 259 251 242 231 229 229 220 223 226 230 233 237 240 242 243 247 252 255 257 258
284 271 258 258 264 263 266 247 232 225 253 268 256 262 266 254 258 260 256 243 238 228 231 221 217 219 224 227 237 241 241 241 245 252 256 257 258 257
351 309 309 323 286 282 266 249 236 228 236 252 262 264 261 253 249 253 249 238 233 232 227 213 214 218 218 225 233 241 246 247 253 255 257 262 265 264
346 357 343 307 276 261 263 257 252 257 235 241 264 276 263 257 253 244 236 229 231 230 212 210 212 209 212 218 230 242 253 258 258 261 260 258 259 265
8 4 6 356 352 345 341 311 279 263 239 223 250 259 250 250 241 228 210 212 200 207 204 205 204 206 210 213 230 233 248 253 258 259 260 263 267 267
24 27 17 19 19 16 3 347 335 327 317 279 257 251 233 213 225 216 205 194 201 198 199 195 196 199 206 211 226 238 248 252 259 262 265 270 273 272
26 33 25 22 24 29 26 32 32 24 8 328 310 306 276 238 229 212 201 180 200 198 189 190 196 197 207 208 216 232 245 252 260 268 274 279 277 277
28 22 15 16 18 19 19 26 34 40 42 31 13 1 334 345 300 259 258 222 226 188 180 170 190 192 189 191 218 246 259 265 269 272 276 275 274 273
15 15 14 10 9 6 3 8 13 17 18 19 30 37 40 50 60 68 84 96 83 90 108 82 144 156 178 232 260 268 276 278 279 280 276 275 272 267
4 3 5 4 4 3 4 6 2 357 353 345 342 337 351 6 6 1 51 67 45 93 183 161 176 143 241 260 270 278 293 298 295 288 275 272 271 270
350 350 350 348 353 356 355 353 353 352 350 353 354 359 357 340 345 7 277 138 109 83 193 111 131 135 281 257 270 307 321 311 304 283 291 283 279 275
339 340 342 336 335 340 340 339 331 327 333 340 339 345 343 353 14 46 309 92 137 100 165 157 154 159 204 304 308 328 334 331 298 345 316 305 292 279
340 335 328 327 322 323 328 332 324 318 321 326 333 341 341 343 347 14 126 232 210 213 176 168 162 195 171 113 266 333 337 349 155 42 60 57 60 194
340 333 328 323 321 327 337 339 334 329 321 324 322 320 321 318 301 272 154 125 130 143 172 195 201 202 221 230 277 287 322 15 181 109 83 84 71 87
344 344 343 343 343 339 342 335 333 329 321 311 308 311 308 307 284 232 205 224 223 204 208 221 230 246 252 252 261 270 221 301 141 120 90 90 88 92
336 338 341 342 336 338 333 334 336 330 317 315 305 289 290 292 277 250 243 214 192 179 188 209 225 231 231 244 247 212 168 127 144 121 114 92 81 99
338 324 320 321 318 321 323 329 332 332 325 319 307 298 278 281 277 263 238 215 187 184 197 191 164 138 112 60 16 155 140 126 133 117 117 107 92 101
332 335 322 308 310 318 321 324 323 322 321 317 315 310 295 280 259 234 217 204 191 202 210 200 183 181 153 97 64 169 141 133 124 105 110 100 104 114
340 327 327 314 307 312 315 314 314 316 311 309 303 303 295 273 248 218 199 189 191 188 196 204 202 220 155 161 120 79 159 139 129 112 108 111 112 124
329 322 313 315 307 310 309 309 310 308 308 305 295 304 296 277 246 215 197 199 193 190 183 193 207 216 166 135 105 79 101 145 143 134 125 113 109 106
330 319 306 308 306 307 305 313 312 319 319 324 323 315 299 277 232 206 199 191 197 195 191 187 175 166 149 134 118 110 99 113 130 129 129 132 133 120
335 338 339 318 319 338 330 346 346 349 354 334 324 322 305 278 232 210 195 193 190 181 162 154 164 164 137 135 129 121 116 110 107 103 97 125 134 137